GW3866 Weather Reports


Display with metric or nautical units.
time (UTC)temp
F
wind
direction
speed
MPH
gust
MPH
rain 1hr
in
rain 24hr
in
rain mn
in
humidity
%
barometer
mb
20260506062037 59 79 5.0 9.0 0.00 0.00 0.00 80 1015.3
20260506061549 59 81 5.0 10.0 0.00 0.00 0.00 80 1015.3
20260506061037 59 89 4.0 11.0 0.00 0.00 0.00 80 1015.4
20260506060537 59 83 7.0 12.0 0.00 0.00 0.00 80 1015.3
20260506051036 59 93 4.0 8.0 0.00 0.00 0.00 81 1015.0
20260506050537 59 77 4.0 8.0 0.00 0.00 0.00 81 1015.1
20260506045037 59 92 3.0 7.0 0.00 0.00 0.00 80 1015.0
20260506044553 59 83 3.0 7.0 0.00 0.00 0.00 80 1015.0
20260506044037 59 74 3.0 9.0 0.00 0.00 0.00 80 1014.9
20260506043539 59 56 4.0 10.0 0.00 0.00 0.00 80 1014.8
20260506043050 59 89 6.0 10.0 0.00 0.00 0.00 79 1014.8
20260506042537 59 62 3.0 7.0 0.00 0.00 0.00 79 1014.8
20260506042038 60 65 3.0 7.0 0.00 0.00 0.00 79 1014.8
20260506041551 60 85 4.0 9.0 0.00 0.00 0.00 78 1014.7
20260506041036 60 88 5.0 10.0 0.00 0.00 0.00 78 1014.7
20260506040537 60 86 5.0 10.0 0.00 0.00 0.00 78 1014.6
20260506040050 60 91 6.0 10.0 0.00 0.00 0.00 78 1014.6
20260506035538 60 85 5.0 9.0 0.00 0.00 0.00 77 1014.6
20260506035037 60 81 5.0 9.0 0.00 0.00 0.00 77 1014.5
20260506034607 60 93 4.0 10.0 0.00 0.00 0.00 77 1014.5
20260506034037 60 119 5.0 10.0 0.00 0.00 0.00 77 1014.5
20260506033537 61 94 6.0 11.0 0.00 0.00 0.00 76 1014.4
20260506033043 61 122 7.0 13.0 0.00 0.00 0.00 76 1014.4
20260506032537 61 85 7.0 13.0 0.00 0.00 0.00 76 1014.3
20260506032037 61 104 8.0 13.0 0.00 0.00 0.00 75 1014.2
20260506031550 61 89 8.0 13.0 0.00 0.00 0.00 75 1014.1
20260506031038 62 86 7.0 13.0 0.00 0.00 0.00 75 1014.0
20260506030537 62 85 8.0 13.0 0.00 0.00 0.00 75 1014.1
20260506030050 62 58 9.0 13.0 0.00 0.00 0.00 74 1014.1
20260506025536 62 76 9.0 12.0 0.00 0.00 0.00 74 1014.0
20260506025037 62 62 8.0 12.0 0.00 0.00 0.00 73 1014.0
20260506024554 63 74 6.0 11.0 0.00 0.00 0.00 73 1014.0
20260506024037 63 104 5.0 12.0 0.00 0.00 0.00 73 1014.0
20260506023537 63 111 5.0 12.0 0.00 0.00 0.00 73 1014.0
20260506023055 63 93 7.0 13.0 0.00 0.00 0.00 73 1014.0
20260506022537 63 87 8.0 13.0 0.00 0.00 0.00 72 1014.0
20260506022037 63 83 8.0 12.0 0.00 0.00 0.00 72 1014.1
20260506021544 63 68 8.0 13.0 0.00 0.00 0.00 72 1014.0
20260506021036 63 99 7.0 13.0 0.00 0.00 0.00 71 1014.0
20260506020536 64 107 7.0 11.0 0.00 0.00 0.00 72 1014.0
20260506020047 64 97 6.0 11.0 0.00 0.00 0.00 72 1014.0
20260506015537 64 108 8.0 11.0 0.00 0.00 0.00 70 1014.0
20260506015037 64 93 6.0 10.0 0.00 0.00 0.00 71 1014.0
20260506014550 64 74 4.0 9.0 0.00 0.00 0.00 71 1014.1
20260506014036 64 105 3.0 10.0 0.00 0.00 0.00 71 1014.1
20260506013538 64 99 4.0 12.0 0.00 0.00 0.00 70 1014.1
20260506013057 64 117 8.0 12.0 0.00 0.00 0.00 70 1014.1
20260506012537 65 94 7.0 12.0 0.00 0.00 0.00 70 1014.0
20260506012039 65 64 7.0 12.0 0.00 0.00 0.00 70 1014.0
20260506011547 65 149 7.0 11.0 0.00 0.00 0.00 68 1014.1
20260506011036 65 89 5.0 12.0 0.00 0.00 0.00 68 1014.0
20260506010537 66 96 7.0 12.0 0.00 0.00 0.00 67 1014.1
20260506010054 66 63 4.0 11.0 0.00 0.00 0.00 68 1014.2
20260506005537 66 105 5.0 11.0 0.00 0.00 0.00 67 1014.2
20260506005037 67 119 5.0 10.0 0.00 0.00 0.00 66 1014.2
20260506004546 67 83 2.0 11.0 0.00 0.00 0.00 68 1014.2
20260506004037 66 89 4.0 11.0 0.00 0.00 0.00 68 1014.2
20260506003537 67 79 4.0 10.0 0.00 0.00 0.00 67 1014.2
20260506003049 66 87 5.0 12.0 0.00 0.00 0.00 68 1014.2
20260506002536 67 101 6.0 12.0 0.00 0.00 0.00 67 1014.3
20260506002037 67 68 8.0 12.0 0.00 0.00 0.00 68 1014.2
20260506001558 67 95 5.0 11.0 0.00 0.00 0.00 67 1014.2
20260506001037 67 93 7.0 11.0 0.00 0.00 0.00 67 1014.2
20260506000537 67 107 4.0 11.0 0.00 0.00 0.00 67 1014.3
20260506000048 67 61 6.0 12.0 0.00 0.00 0.00 68 1014.2
20260505235536 67 85 5.0 12.0 0.00 0.00 0.00 68 1014.3
20260505235036 66 101 8.0 10.0 0.00 0.00 0.00 69 1014.3
20260505234546 65 96 4.0 10.0 0.00 0.00 0.00 72 1014.3
20260505234044 66 27 5.0 10.0 0.00 0.00 0.00 74 1014.3
20260505233538 66 351 4.0 8.0 0.00 0.00 0.00 74 1014.4
20260505233054 66 360 6.0 8.0 0.00 0.00 0.00 74 1014.4
20260505232540 66 359 6.0 8.0 0.00 0.00 0.00 75 1014.5
20260505232037 66 345 2.0 7.0 0.00 0.00 0.00 75 1014.6
20260505231545 65 345 3.0 7.0 0.00 0.00 0.00 75 1014.6
20260505231038 65 345 4.0 7.0 0.00 0.00 0.00 77 1014.6
20260505230537 64 324 2.0 4.0 0.00 0.00 0.00 77 1014.6
20260505230054 64 308 2.0 4.0 0.00 0.00 0.00 77 1014.7
20260505225537 64 305 2.0 6.0 0.00 0.00 0.00 77 1014.8
20260505225037 63 289 3.0 6.0 0.00 0.00 0.00 77 1014.9
20260505224547 63 301 3.0 8.0 0.00 0.00 0.00 80 1014.9
20260505224039 63 307 4.0 8.0 0.00 0.00 0.00 80 1014.9
20260505223536 64 325 6.0 8.0 0.00 0.00 0.00 78 1015.0
20260505223048 63 335 4.0 7.0 0.00 0.00 0.00 80 1015.0
20260505222536 63 318 4.0 5.0 0.00 0.00 0.00 80 1015.0
20260505222037 63 315 4.0 7.0 0.00 0.00 0.00 80 1015.1
20260505221546 63 305 4.0 7.0 0.00 0.00 0.00 81 1015.1
20260505221036 63 303 4.0 7.0 0.00 0.00 0.00 80 1015.2
20260505220536 63 323 4.0 8.0 0.00 0.00 0.00 79 1015.1
20260505220048 63 324 4.0 8.0 0.00 0.00 0.00 79 1015.1
20260505215540 62 326 5.0 8.0 0.00 0.00 0.00 78 1015.2
20260505215040 62 329 5.0 7.0 0.00 0.00 0.00 79 1015.3
20260505214549 63 321 4.0 7.0 0.00 0.00 0.00 78 1015.2
20260505214036 63 318 3.0 7.0 0.00 0.00 0.00 79 1015.4
20260505213539 63 318 3.0 7.0 0.00 0.00 0.00 78 1015.4
20260505213052 63 329 4.0 7.0 0.00 0.00 0.00 77 1015.4
20260505212539 63 335 5.0 7.0 0.00 0.00 0.00 78 1015.3
20260505212037 63 320 3.0 7.0 0.00 0.00 0.00 78 1015.4
20260505211548 63 300 4.0 7.0 0.00 0.00 0.00 78 1015.5
20260505211036 63 322 3.0 8.0 0.00 0.00 0.00 77 1015.4
20260505210536 62 322 4.0 8.0 0.00 0.00 0.00 77 1015.6
20260505210049 63 321 5.0 8.0 0.00 0.00 0.00 77 1015.6
20260505205537 63 322 5.0 8.0 0.00 0.00 0.00 76 1015.6
20260505205037 64 299 5.0 8.0 0.00 0.00 0.00 75 1015.7
20260505204549 66 315 4.0 10.0 0.00 0.00 0.00 71 1015.7
20260505204037 67 35 4.0 10.0 0.00 0.00 0.00 67 1015.7
20260505203541 68 80 6.0 10.0 0.00 0.00 0.00 66 1015.7
20260505203043 67 72 6.0 10.0 0.00 0.00 0.00 66 1015.6
20260505202540 67 48 5.0 10.0 0.00 0.00 0.00 66 1015.6
20260505202040 67 85 5.0 9.0 0.00 0.00 0.00 65 1015.6
20260505201555 68 11 3.0 8.0 0.00 0.00 0.00 66 1015.7
20260505201037 67 28 2.0 11.0 0.00 0.00 0.00 67 1015.7
20260505200536 67 51 7.0 11.0 0.00 0.00 0.00 68 1015.8
20260505200049 66 40 2.0 9.0 0.00 0.00 0.00 67 1015.8
20260505195536 66 103 5.0 11.0 0.00 0.00 0.00 67 1015.8
20260505195036 66 91 6.0 11.0 0.00 0.00 0.00 68 1015.7
20260505194548 66 35 5.0 9.0 0.00 0.00 0.00 67 1015.8
20260505194036 66 55 5.0 9.0 0.00 0.00 0.00 68 1015.7
20260505193537 66 61 6.0 11.0 0.00 0.00 0.00 68 1015.7
20260505193046 65 41 4.0 11.0 0.00 0.00 0.00 69 1015.8
20260505192540 65 71 6.0 11.0 0.00 0.00 0.00 70 1015.7
20260505192036 64 52 4.0 11.0 0.00 0.00 0.00 71 1015.7
20260505191601 64 87 6.0 11.0 0.00 0.00 0.00 71 1015.8
20260505191036 63 64 5.0 11.0 0.00 0.00 0.00 72 1015.8
20260505190543 63 80 6.0 11.0 0.00 0.00 0.00 73 1015.8
20260505190045 63 80 6.0 13.0 0.00 0.00 0.00 73 1015.9
20260505185540 63 94 6.0 13.0 0.00 0.00 0.00 73 1015.9
20260505185039 63 85 7.0 13.0 0.00 0.00 0.00 73 1016.0
20260505184549 63 99 5.0 12.0 0.00 0.00 0.00 74 1015.9
20260505184037 62 61 4.0 12.0 0.00 0.00 0.00 75 1015.9
20260505183536 62 94 7.0 12.0 0.00 0.00 0.00 74 1015.9
20260505183111 62 103 4.0 14.0 0.00 0.00 0.00 75 1016.0
20260505182536 62 105 4.0 14.0 0.00 0.00 0.00 77 1015.9
20260505182042 62 110 10.0 13.0 0.00 0.00 0.00 76 1015.9
20260505181549 61 60 7.0 13.0 0.00 0.00 0.00 78 1015.9
20260505181036 60 65 3.0 14.0 0.00 0.00 0.00 80 1016.0
20260505180536 60 81 6.0 13.0 0.00 0.00 0.00 80 1016.0
20260505180049 60 95 4.0 13.0 0.00 0.00 0.00 81 1016.0
20260505175536 59 77 9.0 14.0 0.00 0.00 0.00 80 1016.0
20260505175036 59 116 6.0 14.0 0.00 0.00 0.00 80 1016.0
20260505174546 59 98 8.0 14.0 0.00 0.00 0.00 81 1016.1
20260505174039 60 98 6.0 11.0 0.00 0.00 0.00 80 1016.0
20260505173540 59 69 3.0 13.0 0.00 0.00 0.00 82 1016.0
20260505173053 59 138 5.0 14.0 0.00 0.00 0.00 82 1016.0
20260505172544 59 88 10.0 16.0 0.00 0.00 0.00 82 1016.0
20260505172040 59 91 7.0 16.0 0.00 0.00 0.00 81 1016.0
20260505171556 60 99 5.0 11.0 0.00 0.00 0.00 81 1015.9
20260505171037 59 118 4.0 14.0 0.00 0.00 0.00 82 1015.9
20260505170537 58 115 4.0 18.0 0.00 0.00 0.00 83 1016.0
20260505170049 58 109 12.0 18.0 0.00 0.00 0.00 82 1016.0
20260505165536 59 88 8.0 13.0 0.00 0.00 0.00 80 1016.0
20260505165036 59 105 5.0 11.0 0.00 0.00 0.00 80 1015.9
20260505164546 59 114 4.0 17.0 0.00 0.00 0.00 80 1016.0
20260505164040 59 43 5.0 17.0 0.00 0.00 0.00 79 1015.9
20260505163540 59 129 3.0 12.0 0.00 0.00 0.00 79 1015.7
20260505163050 59 118 6.0 12.0 0.00 0.00 0.00 81 1015.7
20260505162535 59 70 7.0 12.0 0.00 0.00 0.00 81 1015.8
20260505162040 58 95 3.0 16.0 0.00 0.00 0.00 81 1015.7
20260505161612 58 91 10.0 16.0 0.00 0.00 0.00 80 1015.7
20260505161038 59 91 9.0 14.0 0.00 0.00 0.00 80 1015.7
20260505160541 59 102 9.0 13.0 0.00 0.00 0.00 80 1015.6
20260505153053 58 98 10.0 15.0 0.00 0.00 0.00 80 1015.4
20260505152537 58 76 8.0 17.0 0.00 0.00 0.00 80 1015.4
20260505152037 58 83 8.0 17.0 0.00 0.00 0.00 80 1015.3
20260505151546 58 88 11.0 17.0 0.00 0.00 0.00 80 1015.2
20260505151037 58 114 6.0 13.0 0.00 0.00 0.00 80 1015.2
20260505150538 58 99 7.0 14.0 0.00 0.00 0.00 79 1015.1
20260505140537 59 73 5.0 9.0 0.00 0.00 0.00 78 1014.5
20260505125039 58 72 10.0 15.0 0.00 0.00 0.00 77 1013.5
20260505124550 58 66 11.0 15.0 0.00 0.00 0.00 78 1013.4
20260505124041 58 61 10.0 15.0 0.00 0.00 0.00 78 1013.4
20260505123543 57 60 10.0 15.0 0.00 0.00 0.00 78 1013.3
20260505123046 57 58 7.0 10.0 0.00 0.00 0.00 78 1013.3
20260505122539 57 79 6.0 13.0 0.00 0.00 0.00 78 1013.2
20260505122102 57 73 6.0 13.0 0.00 0.00 0.00 77 1013.2
20260505121543 57 70 8.0 12.0 0.00 0.00 0.00 77 1013.2
20260505121036 57 76 7.0 12.0 0.00 0.00 0.00 77 1013.1
20260505120540 57 58 8.0 13.0 0.00 0.00 0.00 77 1013.1
20260505120101 57 58 10.0 13.0 0.00 0.00 0.00 78 1013.1
20260505115540 57 52 9.0 12.0 0.00 0.00 0.00 78 1013.1
20260505115039 57 68 6.0 9.0 0.00 0.00 0.00 78 1013.0
20260505114548 57 70 5.0 9.0 0.00 0.00 0.00 78 1013.0
20260505114039 57 77 3.0 8.0 0.00 0.00 0.00 78 1012.9
20260505113540 57 68 4.0 9.0 0.00 0.00 0.00 77 1013.0
20260505113047 57 75 5.0 9.0 0.00 0.00 0.00 77 1012.8
20260505112540 57 72 4.0 8.0 0.00 0.00 0.00 78 1012.8
20260505112039 57 89 3.0 7.0 0.00 0.00 0.00 78 1012.9
20260505111546 57 95 2.0 7.0 0.00 0.00 0.00 77 1012.8
20260505111039 57 95 2.0 6.0 0.00 0.00 0.00 77 1012.7
20260505110539 57 92 3.0 6.0 0.00 0.00 0.00 77 1012.7
20260505102039 59 88 3.0 8.0 0.00 0.00 0.00 76 1012.1
20260505101552 59 96 2.0 8.0 0.00 0.00 0.00 76 1012.0
20260505101039 59 97 3.0 7.0 0.00 0.00 0.00 76 1011.9
20260505100539 59 91 4.0 7.0 0.00 0.00 0.00 76 1011.8
20260505100045 59 86 3.0 6.0 0.00 0.00 0.00 77 1011.8
20260505095538 59 67 2.0 7.0 0.00 0.00 0.00 79 1011.7
20260505095037 59 59 2.0 9.0 0.00 0.00 0.00 79 1011.6
20260505094543 59 66 4.0 9.0 0.00 0.00 0.00 79 1011.6
20260505094041 59 71 5.0 9.0 0.00 0.00 0.00 79 1011.6
20260505093537 60 85 5.0 11.0 0.00 0.00 0.00 79 1011.5
20260505093053 60 68 6.0 11.0 0.00 0.00 0.00 79 1011.4
20260505092537 60 113 7.0 11.0 0.00 0.00 0.00 79 1011.3
20260505092036 60 98 4.0 10.0 0.00 0.00 0.00 79 1011.3
20260505091550 60 110 3.0 9.0 0.00 0.00 0.00 79 1011.2
20260505091036 60 85 4.0 9.0 0.00 0.00 0.00 79 1011.2
20260505090537 59 91 3.0 6.0 0.00 0.00 0.00 80 1011.1
20260505090046 59 91 2.0 4.0 0.00 0.00 0.00 80 1011.1
20260505085538 59 85 3.0 6.0 0.00 0.00 0.00 80 1011.1
20260505085038 59 85 2.0 6.0 0.00 0.00 0.00 80 1011.0
20260505084544 59 85 2.0 6.0 0.00 0.00 0.00 80 1011.0
20260505084036 59 56 2.0 4.0 0.00 0.00 0.00 80 1010.9
20260505083537 59 56 2.0 4.0 0.00 0.00 0.00 80 1011.0
20260505083048 59 54 2.0 4.0 0.00 0.00 0.00 79 1010.9
20260505082537 60 53 2.0 4.0 0.00 0.00 0.00 79 1010.8
20260505082037 59 53 2.0 4.0 0.00 0.00 0.00 80 1010.8
20260505081542 59 46 0.0 2.0 0.00 0.00 0.00 79 1010.8
20260505081038 59 0 0.0 3.0 0.00 0.00 0.00 79 1010.8
20260505080537 60 46 1.0 4.0 0.00 0.00 0.00 78 1010.7
20260505080049 60 46 2.0 4.0 0.00 0.00 0.00 77 1010.8
20260505075538 60 268 2.0 3.0 0.00 0.00 0.00 76 1010.8
20260505075037 61 256 0.0 1.0 0.00 0.00 0.00 75 1010.8
20260505074551 60 0 0.0 0.0 0.00 0.00 0.00 76 1010.7
20260505074037 60 0 0.0 0.0 0.00 0.00 0.00 76 1010.7
20260505073538 60 0 0.0 2.0 0.00 0.00 0.00 76 1010.7
20260505073100 60 0 0.0 2.0 0.00 0.00 0.00 77 1010.6
20260505072541 60 0 1.0 2.0 0.00 0.00 0.00 77 1010.5
20260505072037 61 254 1.0 3.0 0.00 0.00 0.00 76 1010.4
20260505071551 61 254 1.0 4.0 0.00 0.00 0.00 76 1010.3
20260505071037 62 0 1.0 4.0 0.00 0.00 0.00 76 1010.3
20260505070537 62 254 1.0 5.0 0.00 0.00 0.00 76 1010.4
20260505070043 62 254 3.0 6.0 0.00 0.00 0.00 76 1010.3